Location: Gleizolles
(44.4833°N, 6.7667°E)
Time: 07:45:54
(UTC+00:00)

BlueWalker 3 - Pass Details

Date: 01 June 2024
Orbit: 480 x 493 km, 53.2° (Epoch: 23 June)

Event Time Altitude Azimuth Distance (km) Brightness Sun altitude
Exits shadow 02:15:19 10° 166° (SSE) 1,636 4.2 -13.5°
Maximum altitude 02:17:29 15° 129° (SE) 1,355 4.1 -13.3°
Drops below altitude 10° 02:19:43 10° 92° (E) 1,655 5.1 -13.0°
Sets 02:22:34 0° 69° (ENE) 2,540 6.7 -12.7°
